Time,TemperatureF,DewpointF,PressureIn,WindDirection,WindDirectionDegrees,WindSpeedMPH,WindSpeedGustMPH,Humidity,HourlyPrecipIn,Conditions,Clouds,dailyrainin,SolarRadiationWatts/m^2,SoftwareType,DateUTC
2013-04-16 00:00:00,76.2,70.7,30.10,East,86,0.0,0.0,83,0.00,,,0.19,0,Wunderground v.1.15,2013-04-16 04:00:00,
2013-04-16 00:02:00,76.2,70.3,30.10,East,89,0.0,0.0,82,0.00,,,0.19,0,Wunderground v.1.15,2013-04-16 04:02:00,
2013-04-16 00:06:00,76.2,70.3,30.10,East,89,0.0,0.0,82,0.00,,,0.19,0,Wunderground v.1.15,2013-04-16 04:06:00,
2013-04-16 00:12:00,76.2,70.3,30.10,East,89,0.0,0.0,82,0.00,,,0.00,0,Wunderground v.1.15,2013-04-16 04:12:00,
2013-04-16 00:18:00,76.2,70.3,30.10,East,89,0.0,0.0,82,0.00,,,0.00,0,Wunderground v.1.15,2013-04-16 04:18:00,
2013-04-16 00:24:00,76.2,70.3,30.10,East,89,0.0,0.0,82,0.00,,,0.00,0,Wunderground v.1.15,2013-04-16 04:24:00,
2013-04-16 00:26:00,76.2,70.3,30.10,East,89,0.0,0.0,82,0.00,,,0.00,0,Wunderground v.1.15,2013-04-16 04:26:00,
2013-04-16 00:32:00,76.2,70.3,30.10,East,89,0.0,0.0,82,0.00,,,0.00,0,Wunderground v.1.15,2013-04-16 04:32:00,
2013-04-16 00:38:00,76.2,70.3,30.10,East,90,0.0,0.0,82,0.00,,,0.00,0,Wunderground v.1.15,2013-04-16 04:38:00,
2013-04-16 00:44:00,76.2,70.3,30.10,East,90,0.0,0.0,82,0.00,,,0.00,0,Wunderground v.1.15,2013-04-16 04:44:00,
2013-04-16 00:50:00,76.2,70.3,30.09,East,90,0.0,3.0,82,0.00,,,0.00,0,Wunderground v.1.15,2013-04-16 04:50:00,
2013-04-16 00:56:00,76.3,70.4,30.09,East,90,1.0,3.0,82,0.00,,,0.00,0,Wunderground v.1.15,2013-04-16 04:56:00,
2013-04-16 01:02:00,76.4,70.5,30.09,East,90,1.0,1.0,82,0.00,,,0.00,0,Wunderground v.1.15,2013-04-16 05:02:00,
2013-04-16 01:08:00,76.4,70.1,30.09,East,90,0.0,1.0,81,0.00,,,0.00,0,Wunderground v.1.15,2013-04-16 05:08:00,
2013-04-16 01:14:00,76.5,70.2,30.09,East,90,0.0,0.0,81,0.00,,,0.00,0,Wunderground v.1.15,2013-04-16 05:14:00,
2013-04-16 01:20:00,76.4,70.1,30.09,East,90,0.0,0.0,81,0.00,,,0.00,0,Wunderground v.1.15,2013-04-16 05:20:00,
2013-04-16 01:26:00,76.3,69.7,30.09,East,88,0.0,1.0,80,0.00,,,0.00,0,Wunderground v.1.15,2013-04-16 05:26:00,
2013-04-16 01:32:00,76.2,69.6,30.08,East,88,0.0,0.0,80,0.00,,,0.00,0,Wunderground v.1.15,2013-04-16 05:32:00,
2013-04-16 01:38:00,76.2,69.6,30.08,East,88,0.0,0.0,80,0.00,,,0.00,0,Wunderground v.1.15,2013-04-16 05:38:00,
2013-04-16 01:44:00,76.1,69.5,30.08,East,88,0.0,0.0,80,0.00,,,0.00,0,Wunderground v.1.15,2013-04-16 05:44:00,
2013-04-16 01:50:00,76.0,69.4,30.08,East,88,0.0,0.0,80,0.00,,,0.00,0,Wunderground v.1.15,2013-04-16 05:50:00,
2013-04-16 01:56:00,75.9,69.3,30.08,East,88,0.0,0.0,80,0.00,,,0.00,0,Wunderground v.1.15,2013-04-16 05:56:00,
2013-04-16 02:02:00,75.8,69.2,30.08,East,88,0.0,0.0,80,0.00,,,0.00,0,Wunderground v.1.15,2013-04-16 06:02:00,
2013-04-16 02:08:00,75.8,69.6,30.08,East,88,0.0,0.0,81,0.00,,,0.00,0,Wunderground v.1.15,2013-04-16 06:08:00,
2013-04-16 02:14:00,75.7,69.8,30.08,East,88,0.0,0.0,82,0.00,,,0.00,0,Wunderground v.1.15,2013-04-16 06:14:00,
2013-04-16 02:20:00,75.6,69.7,30.08,East,88,0.0,0.0,82,0.00,,,0.00,0,Wunderground v.1.15,2013-04-16 06:20:00,
2013-04-16 02:26:00,75.6,69.7,30.07,East,88,0.0,0.0,82,0.00,,,0.00,0,Wunderground v.1.15,2013-04-16 06:26:00,
2013-04-16 02:32:00,75.6,69.7,30.07,East,87,0.0,0.0,82,0.00,,,0.00,0,Wunderground v.1.15,2013-04-16 06:32:00,
2013-04-16 02:38:00,75.5,69.6,30.07,East,87,0.0,0.0,82,0.00,,,0.00,0,Wunderground v.1.15,2013-04-16 06:38:00,
2013-04-16 02:44:00,75.5,70.0,30.07,East,87,0.0,0.0,83,0.00,,,0.00,0,Wunderground v.1.15,2013-04-16 06:44:00,
2013-04-16 02:50:00,75.4,70.2,30.07,East,84,1.0,1.0,84,0.00,,,0.00,0,Wunderground v.1.15,2013-04-16 06:50:00,
2013-04-16 02:56:00,75.3,70.1,30.07,East,83,1.0,1.0,84,0.00,,,0.00,0,Wunderground v.1.15,2013-04-16 06:56:00,
2013-04-16 03:02:00,75.3,70.5,30.07,NE,52,1.0,3.0,85,0.00,,,0.00,0,Wunderground v.1.15,2013-04-16 07:02:00,
2013-04-16 03:08:00,75.2,70.4,30.07,NE,51,1.0,3.0,85,0.00,,,0.00,0,Wunderground v.1.15,2013-04-16 07:08:00,
2013-04-16 03:14:00,75.1,70.6,30.07,ENE,57,0.0,2.0,86,0.00,,,0.00,0,Wunderground v.1.15,2013-04-16 07:14:00,
2013-04-16 03:20:00,75.1,70.6,30.07,ENE,57,0.0,0.0,86,0.00,,,0.00,0,Wunderground v.1.15,2013-04-16 07:20:00,
2013-04-16 03:26:00,75.0,70.5,30.06,ENE,57,0.0,0.0,86,0.00,,,0.00,0,Wunderground v.1.15,2013-04-16 07:26:00,
2013-04-16 03:32:00,75.0,70.5,30.07,ENE,57,0.0,0.0,86,0.00,,,0.00,0,Wunderground v.1.15,2013-04-16 07:32:00,
2013-04-16 03:38:00,75.0,70.9,30.07,NE,56,0.0,0.0,87,0.00,,,0.00,0,Wunderground v.1.15,2013-04-16 07:38:00,
2013-04-16 03:44:00,75.1,70.6,30.07,NE,46,0.0,2.0,86,0.00,,,0.00,0,Wunderground v.1.15,2013-04-16 07:44:00,
2013-04-16 03:50:00,75.1,71.0,30.07,NE,46,1.0,1.0,87,0.00,,,0.00,0,Wunderground v.1.15,2013-04-16 07:50:00,
2013-04-16 03:56:00,75.1,71.0,30.07,NE,45,1.0,3.0,87,0.00,,,0.00,0,Wunderground v.1.15,2013-04-16 07:56:00,
2013-04-16 04:02:00,75.2,71.1,30.07,NE,47,0.0,1.0,87,0.00,,,0.00,0,Wunderground v.1.15,2013-04-16 08:02:00,
2013-04-16 04:08:00,75.2,71.4,30.07,NE,46,0.0,2.0,88,0.00,,,0.00,0,Wunderground v.1.15,2013-04-16 08:08:00,
2013-04-16 04:14:00,75.2,71.4,30.07,NE,46,0.0,0.0,88,0.00,,,0.00,0,Wunderground v.1.15,2013-04-16 08:14:00,
2013-04-16 04:20:00,75.1,71.3,30.07,NE,46,0.0,3.0,88,0.00,,,0.00,0,Wunderground v.1.15,2013-04-16 08:20:00,
2013-04-16 04:26:00,75.1,71.6,30.06,NE,46,1.0,3.0,89,0.00,,,0.00,0,Wunderground v.1.15,2013-04-16 08:26:00,
2013-04-16 04:32:00,75.0,71.5,30.06,NE,44,1.0,2.0,89,0.00,,,0.00,0,Wunderground v.1.15,2013-04-16 08:32:00,
2013-04-16 04:38:00,74.9,71.4,30.06,NE,37,1.0,3.0,89,0.00,,,0.00,0,Wunderground v.1.15,2013-04-16 08:38:00,
2013-04-16 04:44:00,74.9,71.4,30.07,NE,37,1.0,1.0,89,0.00,,,0.00,0,Wunderground v.1.15,2013-04-16 08:44:00,
2013-04-16 04:50:00,74.9,71.8,30.07,NE,38,0.0,3.0,90,0.00,,,0.00,0,Wunderground v.1.15,2013-04-16 08:50:00,
2013-04-16 04:56:00,74.9,71.8,30.07,NE,38,1.0,5.0,90,0.00,,,0.00,0,Wunderground v.1.15,2013-04-16 08:56:00,
2013-04-16 05:02:00,74.9,72.1,30.07,NE,38,1.0,2.0,91,0.00,,,0.00,0,Wunderground v.1.15,2013-04-16 09:02:00,
2013-04-16 05:08:00,74.9,72.1,30.07,NE,37,2.0,4.0,91,0.00,,,0.00,0,Wunderground v.1.15,2013-04-16 09:08:00,
2013-04-16 05:14:00,74.9,72.1,30.07,NE,38,2.0,3.0,91,0.00,,,0.00,0,Wunderground v.1.15,2013-04-16 09:14:00,
2013-04-16 05:20:00,74.8,72.3,30.07,NNE,28,2.0,2.0,92,0.00,,,0.00,0,Wunderground v.1.15,2013-04-16 09:20:00,
2013-04-16 05:26:00,74.8,72.3,30.07,NNE,32,2.0,4.0,92,0.00,,,0.00,0,Wunderground v.1.15,2013-04-16 09:26:00,
2013-04-16 05:32:00,74.8,72.3,30.07,NNE,31,3.0,4.0,92,0.00,,,0.00,0,Wunderground v.1.15,2013-04-16 09:32:00,
2013-04-16 05:38:00,74.7,72.2,30.08,NE,50,2.0,4.0,92,0.00,,,0.00,0,Wunderground v.1.15,2013-04-16 09:38:00,
2013-04-16 05:44:00,74.7,72.2,30.08,NE,48,3.0,5.0,92,0.00,,,0.00,0,Wunderground v.1.15,2013-04-16 09:44:00,
2013-04-16 05:50:00,74.8,72.3,30.08,NNE,13,3.0,3.0,92,0.00,,,0.00,0,Wunderground v.1.15,2013-04-16 09:50:00,
2013-04-16 05:56:00,74.8,72.3,30.08,NE,55,3.0,5.0,92,0.00,,,0.00,0,Wunderground v.1.15,2013-04-16 09:56:00,
2013-04-16 06:02:00,74.9,72.1,30.08,NE,49,3.0,4.0,91,0.00,,,0.00,0,Wunderground v.1.15,2013-04-16 10:02:00,
2013-04-16 06:08:00,75.0,72.2,30.08,ENE,62,3.0,5.0,91,0.00,,,0.00,0,Wunderground v.1.15,2013-04-16 10:08:00,
2013-04-16 06:14:00,75.1,72.0,30.08,NNE,28,4.0,6.0,90,0.00,,,0.00,0,Wunderground v.1.15,2013-04-16 10:14:00,
2013-04-16 06:20:00,75.2,72.1,30.09,ENE,62,5.0,5.0,90,0.00,,,0.00,0,Wunderground v.1.15,2013-04-16 10:20:00,
2013-04-16 06:26:00,75.2,72.1,30.09,ENE,60,4.0,5.0,90,0.00,,,0.00,0,Wunderground v.1.15,2013-04-16 10:26:00,
2013-04-16 06:32:00,75.2,72.1,30.09,NE,47,4.0,4.0,90,0.00,,,0.00,0,Wunderground v.1.15,2013-04-16 10:32:00,
2013-04-16 06:38:00,75.3,72.2,30.09,NE,55,4.0,6.0,90,0.00,,,0.00,0,Wunderground v.1.15,2013-04-16 10:38:00,
2013-04-16 06:44:00,75.2,72.4,30.09,ENE,57,4.0,11.0,91,0.00,,,0.00,0,Wunderground v.1.15,2013-04-16 10:44:00,
2013-04-16 06:50:00,75.1,72.3,30.09,ENE,74,4.0,4.0,91,0.00,,,0.00,0,Wunderground v.1.15,2013-04-16 10:50:00,
2013-04-16 06:56:00,75.0,72.5,30.10,ENE,57,4.0,5.0,92,0.00,,,0.00,0,Wunderground v.1.15,2013-04-16 10:56:00,
2013-04-16 07:02:00,75.0,72.5,30.10,NE,40,4.0,6.0,92,0.00,,,0.00,9,Wunderground v.1.15,2013-04-16 11:02:00,
2013-04-16 07:08:00,75.0,72.5,30.11,ENE,57,4.0,6.0,92,0.00,,,0.00,12,Wunderground v.1.15,2013-04-16 11:08:00,
2013-04-16 07:14:00,75.0,72.5,30.11,NE,42,4.0,4.0,92,0.00,,,0.00,19,Wunderground v.1.15,2013-04-16 11:14:00,
2013-04-16 07:20:00,75.0,72.5,30.11,ENE,63,4.0,4.0,92,0.00,,,0.00,25,Wunderground v.1.15,2013-04-16 11:20:00,
2013-04-16 07:26:00,75.1,72.6,30.12,ENE,71,3.0,5.0,92,0.00,,,0.00,33,Wunderground v.1.15,2013-04-16 11:26:00,
2013-04-16 07:32:00,75.2,72.7,30.12,NE,55,3.0,3.0,92,0.00,,,0.00,46,Wunderground v.1.15,2013-04-16 11:32:00,
2013-04-16 07:38:00,75.3,72.5,30.12,ENE,63,4.0,4.0,91,0.00,,,0.00,58,Wunderground v.1.15,2013-04-16 11:38:00,
2013-04-16 07:44:00,75.5,72.7,30.12,NE,53,4.0,4.0,91,0.00,,,0.00,81,Wunderground v.1.15,2013-04-16 11:44:00,
2013-04-16 07:50:00,75.7,72.9,30.13,NE,54,5.0,5.0,91,0.00,,,0.00,104,Wunderground v.1.15,2013-04-16 11:50:00,
2013-04-16 07:56:00,75.8,72.7,30.13,ENE,57,5.0,5.0,90,0.00,,,0.00,121,Wunderground v.1.15,2013-04-16 11:56:00,
2013-04-16 08:02:00,76.0,72.9,30.13,ENE,59,4.0,6.0,90,0.00,,,0.00,148,Wunderground v.1.15,2013-04-16 12:02:00,
2013-04-16 08:08:00,76.3,73.1,30.13,NE,47,4.0,10.0,90,0.00,,,0.00,165,Wunderground v.1.15,2013-04-16 12:08:00,
2013-04-16 08:14:00,76.5,73.0,30.13,ENE,61,4.0,5.0,89,0.00,,,0.00,218,Wunderground v.1.15,2013-04-16 12:14:00,
2013-04-16 08:20:00,76.8,73.0,30.14,NE,52,5.0,5.0,88,0.00,,,0.00,301,Wunderground v.1.15,2013-04-16 12:20:00,
2013-04-16 08:26:00,77.0,73.2,30.14,NE,37,6.0,10.0,88,0.00,,,0.00,276,Wunderground v.1.15,2013-04-16 12:26:00,
2013-04-16 08:32:00,77.2,73.4,30.14,NE,53,6.0,7.0,88,0.00,,,0.00,316,Wunderground v.1.15,2013-04-16 12:32:00,
2013-04-16 08:38:00,77.4,72.9,30.14,NE,36,5.0,7.0,86,0.00,,,0.00,359,Wunderground v.1.15,2013-04-16 12:38:00,
2013-04-16 08:44:00,77.7,73.2,30.15,ENE,63,5.0,9.0,86,0.00,,,0.00,362,Wunderground v.1.15,2013-04-16 12:44:00,
2013-04-16 08:50:00,77.8,72.9,30.15,NE,52,5.0,5.0,85,0.00,,,0.00,352,Wunderground v.1.15,2013-04-16 12:50:00,
2013-04-16 08:56:00,77.9,73.0,30.15,ENE,74,5.0,8.0,85,0.00,,,0.00,272,Wunderground v.1.15,2013-04-16 12:56:00,
2013-04-16 09:02:00,77.8,72.9,30.15,ENE,71,6.0,6.0,85,0.00,,,0.00,234,Wunderground v.1.15,2013-04-16 13:02:00,
2013-04-16 09:08:00,78.0,73.1,30.14,NE,41,6.0,6.0,85,0.00,,,0.00,512,Wunderground v.1.15,2013-04-16 13:08:00,
2013-04-16 09:14:00,78.3,72.7,30.15,ENE,59,6.0,6.0,83,0.00,,,0.00,415,Wunderground v.1.15,2013-04-16 13:14:00,
2013-04-16 09:20:00,78.5,72.9,30.15,ENE,74,6.0,6.0,83,0.00,,,0.00,422,Wunderground v.1.15,2013-04-16 13:20:00,
2013-04-16 09:26:00,78.5,72.9,30.15,ENE,61,6.0,14.0,83,0.00,,,0.00,445,Wunderground v.1.15,2013-04-16 13:26:00,
2013-04-16 09:32:00,78.6,73.0,30.15,East,84,6.0,7.0,83,0.00,,,0.00,466,Wunderground v.1.15,2013-04-16 13:32:00,
2013-04-16 09:38:00,78.6,72.6,30.15,ENE,70,7.0,7.0,82,0.00,,,0.00,487,Wunderground v.1.15,2013-04-16 13:38:00,
2013-04-16 09:44:00,78.6,72.6,30.15,NE,48,7.0,10.0,82,0.00,,,0.00,503,Wunderground v.1.15,2013-04-16 13:44:00,
2013-04-16 09:50:00,78.7,72.7,30.15,ENE,72,6.0,6.0,82,0.00,,,0.00,529,Wunderground v.1.15,2013-04-16 13:50:00,
2013-04-16 09:56:00,79.1,73.1,30.15,ENE,62,5.0,6.0,82,0.00,,,0.00,548,Wunderground v.1.15,2013-04-16 13:56:00,
2013-04-16 10:02:00,79.1,72.8,30.15,ENE,67,5.0,11.0,81,0.00,,,0.00,568,Wunderground v.1.15,2013-04-16 14:02:00,
2013-04-16 10:08:00,79.3,73.0,30.16,East,79,5.0,11.0,81,0.00,,,0.00,589,Wunderground v.1.15,2013-04-16 14:08:00,
2013-04-16 10:14:00,79.4,72.3,30.16,East,98,5.0,5.0,79,0.00,,,0.00,610,Wunderground v.1.15,2013-04-16 14:14:00,
2013-04-16 10:20:00,79.3,72.6,30.16,East,80,6.0,10.0,80,0.00,,,0.00,628,Wunderground v.1.15,2013-04-16 14:20:00,
2013-04-16 10:26:00,79.3,72.2,30.16,East,84,7.0,12.0,79,0.00,,,0.00,645,Wunderground v.1.15,2013-04-16 14:26:00,
2013-04-16 10:32:00,79.5,72.4,30.16,ENE,67,6.0,10.0,79,0.00,,,0.00,666,Wunderground v.1.15,2013-04-16 14:32:00,
2013-04-16 10:38:00,79.5,72.4,30.17,ENE,62,6.0,10.0,79,0.00,,,0.00,682,Wunderground v.1.15,2013-04-16 14:38:00,
2013-04-16 10:44:00,79.6,72.1,30.17,ENE,76,6.0,13.0,78,0.00,,,0.00,700,Wunderground v.1.15,2013-04-16 14:44:00,
2013-04-16 10:50:00,79.8,72.3,30.17,NE,41,6.0,6.0,78,0.00,,,0.00,719,Wunderground v.1.15,2013-04-16 14:50:00,
2013-04-16 10:56:00,79.9,72.0,30.17,ENE,57,6.0,7.0,77,0.00,,,0.00,735,Wunderground v.1.15,2013-04-16 14:56:00,
2013-04-16 11:02:00,79.9,72.0,30.17,ENE,62,6.0,7.0,77,0.00,,,0.00,752,Wunderground v.1.15,2013-04-16 15:02:00,
2013-04-16 11:08:00,80.0,71.8,30.17,ENE,62,6.0,7.0,76,0.00,,,0.00,766,Wunderground v.1.15,2013-04-16 15:08:00,
2013-04-16 11:14:00,80.4,71.7,30.17,ENE,65,6.0,6.0,75,0.00,,,0.00,782,Wunderground v.1.15,2013-04-16 15:14:00,
2013-04-16 11:20:00,80.2,71.9,30.17,NNE,26,6.0,6.0,76,0.00,,,0.00,796,Wunderground v.1.15,2013-04-16 15:20:00,
2013-04-16 11:26:00,80.5,72.2,30.17,ENE,59,6.0,7.0,76,0.00,,,0.00,812,Wunderground v.1.15,2013-04-16 15:26:00,
2013-04-16 11:32:00,80.5,71.8,30.17,ENE,66,6.0,8.0,75,0.00,,,0.00,775,Wunderground v.1.15,2013-04-16 15:32:00,
2013-04-16 11:38:00,80.7,72.0,30.17,ENE,78,5.0,8.0,75,0.00,,,0.00,837,Wunderground v.1.15,2013-04-16 15:38:00,
2013-04-16 11:44:00,80.7,72.0,30.17,NNE,32,5.0,6.0,75,0.00,,,0.00,853,Wunderground v.1.15,2013-04-16 15:44:00,
2013-04-16 11:50:00,81.0,72.3,30.17,NE,50,5.0,5.0,75,0.00,,,0.00,865,Wunderground v.1.15,2013-04-16 15:50:00,
2013-04-16 11:56:00,80.9,72.6,30.18,NE,56,5.0,5.0,76,0.00,,,0.00,882,Wunderground v.1.15,2013-04-16 15:56:00,
2013-04-16 12:02:00,80.9,71.8,30.18,ENE,65,6.0,6.0,74,0.00,,,0.00,882,Wunderground v.1.15,2013-04-16 16:02:00,
2013-04-16 12:08:00,80.9,72.2,30.17,ENE,63,6.0,8.0,75,0.00,,,0.00,900,Wunderground v.1.15,2013-04-16 16:08:00,
2013-04-16 12:14:00,81.1,72.4,30.17,NE,36,6.0,13.0,75,0.00,,,0.00,912,Wunderground v.1.15,2013-04-16 16:14:00,
2013-04-16 12:20:00,81.2,72.5,30.17,ENE,71,6.0,6.0,75,0.00,,,0.00,946,Wunderground v.1.15,2013-04-16 16:20:00,
2013-04-16 12:26:00,81.1,72.0,30.17,ENE,61,6.0,10.0,74,0.00,,,0.00,926,Wunderground v.1.15,2013-04-16 16:26:00,
2013-04-16 12:32:00,81.1,71.6,30.17,NE,51,7.0,9.0,73,0.00,,,0.00,933,Wunderground v.1.15,2013-04-16 16:32:00,
2013-04-16 12:38:00,80.9,72.2,30.17,ENE,58,6.0,10.0,75,0.00,,,0.00,937,Wunderground v.1.15,2013-04-16 16:38:00,
2013-04-16 12:44:00,80.9,71.8,30.17,NE,49,6.0,9.0,74,0.00,,,0.00,944,Wunderground v.1.15,2013-04-16 16:44:00,
2013-04-16 12:50:00,81.1,72.0,30.17,ENE,67,7.0,9.0,74,0.00,,,0.00,947,Wunderground v.1.15,2013-04-16 16:50:00,
2013-04-16 12:56:00,81.2,71.7,30.17,East,83,6.0,9.0,73,0.00,,,0.00,956,Wunderground v.1.15,2013-04-16 16:56:00,
2013-04-16 13:02:00,80.7,71.6,30.17,ENE,69,6.0,6.0,74,0.00,,,0.00,958,Wunderground v.1.15,2013-04-16 17:02:00,
2013-04-16 13:08:00,80.8,71.7,30.17,NE,39,6.0,11.0,74,0.00,,,0.00,962,Wunderground v.1.15,2013-04-16 17:08:00,
2013-04-16 13:14:00,81.2,71.7,30.16,ENE,74,6.0,12.0,73,0.00,,,0.00,967,Wunderground v.1.15,2013-04-16 17:14:00,
2013-04-16 13:20:00,81.2,71.3,30.16,NNE,33,5.0,5.0,72,0.00,,,0.00,969,Wunderground v.1.15,2013-04-16 17:20:00,
2013-04-16 13:26:00,81.4,71.9,30.16,ENE,66,6.0,9.0,73,0.00,,,0.00,970,Wunderground v.1.15,2013-04-16 17:26:00,
2013-04-16 13:32:00,81.0,71.1,30.16,East,97,7.0,10.0,72,0.00,,,0.00,970,Wunderground v.1.15,2013-04-16 17:32:00,
2013-04-16 13:38:00,81.0,71.1,30.16,East,85,7.0,10.0,72,0.00,,,0.00,969,Wunderground v.1.15,2013-04-16 17:38:00,
2013-04-16 13:44:00,80.9,71.0,30.16,NE,53,7.0,12.0,72,0.00,,,0.00,970,Wunderground v.1.15,2013-04-16 17:44:00,
2013-04-16 13:50:00,80.8,70.9,30.16,ENE,64,7.0,12.0,72,0.00,,,0.00,969,Wunderground v.1.15,2013-04-16 17:50:00,
2013-04-16 13:56:00,80.7,71.2,30.16,NE,39,7.0,12.0,73,0.00,,,0.00,960,Wunderground v.1.15,2013-04-16 17:56:00,
2013-04-16 14:02:00,81.0,71.1,30.15,ENE,69,7.0,12.0,72,0.00,,,0.00,960,Wunderground v.1.15,2013-04-16 18:02:00,
2013-04-16 14:08:00,81.5,72.0,30.15,East,79,6.0,12.0,73,0.00,,,0.00,958,Wunderground v.1.15,2013-04-16 18:08:00,
2013-04-16 14:14:00,81.1,72.0,30.15,East,94,6.0,10.0,74,0.00,,,0.00,953,Wunderground v.1.15,2013-04-16 18:14:00,
2013-04-16 14:20:00,81.3,71.0,30.15,ENE,71,6.0,7.0,71,0.00,,,0.00,946,Wunderground v.1.15,2013-04-16 18:20:00,
2013-04-16 14:26:00,81.1,70.8,30.15,ENE,62,7.0,7.0,71,0.00,,,0.00,944,Wunderground v.1.15,2013-04-16 18:26:00,
2013-04-16 14:32:00,80.9,71.0,30.15,East,90,7.0,10.0,72,0.00,,,0.00,933,Wunderground v.1.15,2013-04-16 18:32:00,
2013-04-16 14:38:00,81.0,70.7,30.15,ENE,67,7.0,10.0,71,0.00,,,0.00,928,Wunderground v.1.15,2013-04-16 18:38:00,
2013-04-16 14:44:00,81.3,71.0,30.15,East,92,6.0,9.0,71,0.00,,,0.00,923,Wunderground v.1.15,2013-04-16 18:44:00,
2013-04-16 14:50:00,81.1,70.4,30.14,ENE,72,6.0,6.0,70,0.00,,,0.00,911,Wunderground v.1.15,2013-04-16 18:50:00,
2013-04-16 14:56:00,81.1,70.8,30.15,ENE,60,6.0,9.0,71,0.00,,,0.00,902,Wunderground v.1.15,2013-04-16 18:56:00,
2013-04-16 15:02:00,81.3,71.4,30.14,North,11,6.0,8.0,72,0.00,,,0.00,893,Wunderground v.1.15,2013-04-16 19:02:00,
2013-04-16 15:08:00,81.5,70.8,30.14,NNE,24,6.0,10.0,70,0.00,,,0.00,882,Wunderground v.1.15,2013-04-16 19:08:00,
2013-04-16 15:14:00,81.1,70.4,30.14,ENE,63,7.0,9.0,70,0.00,,,0.00,872,Wunderground v.1.15,2013-04-16 19:14:00,
2013-04-16 15:20:00,81.0,70.7,30.14,NE,34,8.0,8.0,71,0.00,,,0.00,858,Wunderground v.1.15,2013-04-16 19:20:00,
2013-04-16 15:26:00,81.0,70.3,30.14,NE,44,7.0,8.0,70,0.00,,,0.00,847,Wunderground v.1.15,2013-04-16 19:26:00,
2013-04-16 15:32:00,81.0,69.9,30.14,East,82,7.0,8.0,69,0.00,,,0.00,835,Wunderground v.1.15,2013-04-16 19:32:00,
2013-04-16 15:38:00,80.7,69.6,30.14,ENE,71,8.0,15.0,69,0.00,,,0.00,821,Wunderground v.1.15,2013-04-16 19:38:00,
2013-04-16 15:44:00,80.5,69.4,30.14,NNE,32,8.0,11.0,69,0.00,,,0.00,809,Wunderground v.1.15,2013-04-16 19:44:00,
2013-04-16 15:50:00,80.5,70.2,30.14,ENE,57,8.0,10.0,71,0.00,,,0.00,793,Wunderground v.1.15,2013-04-16 19:50:00,
2013-04-16 15:56:00,80.6,69.9,30.14,ENE,58,8.0,10.0,70,0.00,,,0.00,777,Wunderground v.1.15,2013-04-16 19:56:00,
2013-04-16 16:02:00,80.5,69.4,30.14,NE,35,7.0,11.0,69,0.00,,,0.00,763,Wunderground v.1.15,2013-04-16 20:02:00,
2013-04-16 16:08:00,80.4,70.1,30.14,NNE,19,8.0,11.0,71,0.00,,,0.00,749,Wunderground v.1.15,2013-04-16 20:08:00,
2013-04-16 16:14:00,80.5,69.8,30.14,NE,49,7.0,11.0,70,0.00,,,0.00,729,Wunderground v.1.15,2013-04-16 20:14:00,
2013-04-16 16:20:00,80.4,69.7,30.14,NE,42,8.0,11.0,70,0.00,,,0.00,710,Wunderground v.1.15,2013-04-16 20:20:00,
2013-04-16 16:26:00,80.1,70.7,30.14,NNE,25,7.0,11.0,73,0.00,,,0.00,694,Wunderground v.1.15,2013-04-16 20:26:00,
2013-04-16 16:32:00,80.2,69.9,30.14,ENE,57,7.0,7.0,71,0.00,,,0.00,686,Wunderground v.1.15,2013-04-16 20:32:00,
2013-04-16 16:38:00,80.0,70.2,30.14,NE,56,8.0,12.0,72,0.00,,,0.00,659,Wunderground v.1.15,2013-04-16 20:38:00,
2013-04-16 16:44:00,80.0,70.6,30.14,NE,49,7.0,8.0,73,0.00,,,0.00,642,Wunderground v.1.15,2013-04-16 20:44:00,
2013-04-16 16:50:00,80.0,70.6,30.14,NE,50,6.0,9.0,73,0.00,,,0.00,619,Wunderground v.1.15,2013-04-16 20:50:00,
2013-04-16 16:56:00,80.1,71.1,30.14,ENE,59,6.0,9.0,74,0.00,,,0.00,598,Wunderground v.1.15,2013-04-16 20:56:00,
2013-04-16 17:02:00,79.7,70.3,30.14,NNE,13,7.0,7.0,73,0.00,,,0.00,580,Wunderground v.1.15,2013-04-16 21:02:00,
2013-04-16 17:08:00,79.7,70.3,30.13,East,87,7.0,7.0,73,0.00,,,0.00,559,Wunderground v.1.15,2013-04-16 21:08:00,
2013-04-16 17:14:00,79.7,70.3,30.14,ENE,66,7.0,11.0,73,0.00,,,0.00,540,Wunderground v.1.15,2013-04-16 21:14:00,
2013-04-16 17:20:00,79.4,70.0,30.13,ENE,71,7.0,7.0,73,0.00,,,0.00,519,Wunderground v.1.15,2013-04-16 21:20:00,
2013-04-16 17:26:00,79.3,70.7,30.13,ENE,76,7.0,7.0,75,0.00,,,0.00,496,Wunderground v.1.15,2013-04-16 21:26:00,
2013-04-16 17:32:00,79.2,69.8,30.14,NE,36,8.0,9.0,73,0.00,,,0.00,473,Wunderground v.1.15,2013-04-16 21:32:00,
2013-04-16 17:38:00,79.1,70.1,30.14,NE,41,8.0,12.0,74,0.00,,,0.00,446,Wunderground v.1.15,2013-04-16 21:38:00,
2013-04-16 17:44:00,79.0,69.6,30.14,NE,42,6.0,11.0,73,0.00,,,0.00,422,Wunderground v.1.15,2013-04-16 21:44:00,
2013-04-16 17:50:00,78.8,70.2,30.14,ENE,66,6.0,10.0,75,0.00,,,0.00,404,Wunderground v.1.15,2013-04-16 21:50:00,
2013-04-16 17:56:00,78.6,70.4,30.14,East,91,7.0,11.0,76,0.00,,,0.00,316,Wunderground v.1.15,2013-04-16 21:56:00,
2013-04-16 18:02:00,78.2,70.0,30.14,NNE,24,7.0,9.0,76,0.00,,,0.00,373,Wunderground v.1.15,2013-04-16 22:02:00,
2013-04-16 18:08:00,78.3,70.5,30.14,NE,40,6.0,9.0,77,0.00,,,0.00,334,Wunderground v.1.15,2013-04-16 22:08:00,
2013-04-16 18:14:00,78.0,70.2,30.13,ENE,61,7.0,7.0,77,0.00,,,0.00,311,Wunderground v.1.15,2013-04-16 22:14:00,
2013-04-16 18:20:00,77.9,70.5,30.14,East,87,7.0,7.0,78,0.00,,,0.00,281,Wunderground v.1.15,2013-04-16 22:20:00,
2013-04-16 18:26:00,78.0,70.6,30.14,NE,43,5.0,7.0,78,0.00,,,0.00,258,Wunderground v.1.15,2013-04-16 22:26:00,
2013-04-16 18:32:00,77.9,70.1,30.14,NE,46,5.0,5.0,77,0.00,,,0.00,241,Wunderground v.1.15,2013-04-16 22:32:00,
2013-04-16 18:38:00,77.8,70.0,30.14,NE,48,5.0,10.0,77,0.00,,,0.00,213,Wunderground v.1.15,2013-04-16 22:38:00,
2013-04-16 18:44:00,77.7,69.5,30.14,NNE,26,6.0,6.0,76,0.00,,,0.00,188,Wunderground v.1.15,2013-04-16 22:44:00,
2013-04-16 18:50:00,77.3,69.1,30.14,NNE,27,7.0,7.0,76,0.00,,,0.00,167,Wunderground v.1.15,2013-04-16 22:50:00,
2013-04-16 18:56:00,77.3,69.5,30.14,ENE,69,6.0,7.0,77,0.00,,,0.00,137,Wunderground v.1.15,2013-04-16 22:56:00,
2013-04-16 19:02:00,77.1,69.7,30.15,ENE,78,6.0,6.0,78,0.00,,,0.00,111,Wunderground v.1.15,2013-04-16 23:02:00,
2013-04-16 19:08:00,76.9,69.9,30.15,NE,52,7.0,9.0,79,0.00,,,0.00,79,Wunderground v.1.15,2013-04-16 23:08:00,
2013-04-16 19:14:00,76.8,69.8,30.15,NE,38,6.0,7.0,79,0.00,,,0.00,40,Wunderground v.1.15,2013-04-16 23:14:00,
2013-04-16 19:20:00,76.8,69.8,30.15,NE,34,5.0,6.0,79,0.00,,,0.00,33,Wunderground v.1.15,2013-04-16 23:20:00,
2013-04-16 19:26:00,76.6,69.6,30.15,NE,54,5.0,6.0,79,0.00,,,0.00,26,Wunderground v.1.15,2013-04-16 23:26:00,
2013-04-16 19:32:00,76.4,69.4,30.15,NE,50,5.0,7.0,79,0.00,,,0.00,19,Wunderground v.1.15,2013-04-16 23:32:00,
2013-04-16 19:38:00,76.3,69.3,30.15,ENE,61,5.0,7.0,79,0.00,,,0.00,12,Wunderground v.1.15,2013-04-16 23:38:00,
2013-04-16 19:44:00,76.2,69.2,30.15,NE,38,6.0,7.0,79,0.00,,,0.00,9,Wunderground v.1.15,2013-04-16 23:44:00,
2013-04-16 19:50:00,76.1,69.1,30.15,NE,45,7.0,10.0,79,0.00,,,0.00,0,Wunderground v.1.15,2013-04-16 23:50:00,
2013-04-16 19:56:00,76.1,69.5,30.15,NE,49,6.0,10.0,80,0.00,,,0.00,0,Wunderground v.1.15,2013-04-16 23:56:00,
2013-04-16 20:02:00,76.0,69.7,30.15,NE,35,5.0,10.0,81,0.00,,,0.00,0,Wunderground v.1.15,2013-04-17 00:02:00,
2013-04-16 20:08:00,75.9,69.6,30.15,NE,55,6.0,10.0,81,0.00,,,0.00,0,Wunderground v.1.15,2013-04-17 00:08:00,
2013-04-16 20:14:00,75.8,69.9,30.16,NE,34,6.0,6.0,82,0.00,,,0.00,0,Wunderground v.1.15,2013-04-17 00:14:00,
2013-04-16 20:20:00,75.7,69.5,30.16,ENE,66,6.0,6.0,81,0.00,,,0.00,0,Wunderground v.1.15,2013-04-17 00:20:00,
2013-04-16 20:26:00,75.7,69.5,30.16,NE,48,7.0,7.0,81,0.00,,,0.00,0,Wunderground v.1.15,2013-04-17 00:26:00,
2013-04-16 20:32:00,75.7,69.5,30.16,ENE,74,7.0,12.0,81,0.00,,,0.00,0,Wunderground v.1.15,2013-04-17 00:32:00,
2013-04-16 20:38:00,75.6,69.0,30.16,ENE,63,7.0,12.0,80,0.00,,,0.00,0,Wunderground v.1.15,2013-04-17 00:38:00,
2013-04-16 20:44:00,75.7,69.5,30.17,NNE,32,7.0,7.0,81,0.00,,,0.00,0,Wunderground v.1.15,2013-04-17 00:44:00,
2013-04-16 20:50:00,75.7,69.5,30.17,NE,48,6.0,6.0,81,0.00,,,0.00,0,Wunderground v.1.15,2013-04-17 00:50:00,
2013-04-16 20:56:00,75.7,69.5,30.17,ENE,61,5.0,6.0,81,0.00,,,0.00,0,Wunderground v.1.15,2013-04-17 00:56:00,
2013-04-16 21:02:00,75.6,69.7,30.17,NE,34,5.0,10.0,82,0.00,,,0.00,0,Wunderground v.1.15,2013-04-17 01:02:00,
2013-04-16 21:08:00,75.6,69.7,30.17,ENE,63,6.0,10.0,82,0.00,,,0.00,0,Wunderground v.1.15,2013-04-17 01:08:00,
2013-04-16 21:14:00,75.6,69.7,30.17,NE,44,5.0,6.0,82,0.00,,,0.00,0,Wunderground v.1.15,2013-04-17 01:14:00,
2013-04-16 21:20:00,75.6,69.7,30.17,ENE,78,5.0,7.0,82,0.00,,,0.00,0,Wunderground v.1.15,2013-04-17 01:20:00,
2013-04-16 21:26:00,75.5,69.6,30.17,ENE,63,5.0,9.0,82,0.00,,,0.00,0,Wunderground v.1.15,2013-04-17 01:26:00,
2013-04-16 21:32:00,75.5,70.0,30.17,NE,54,5.0,5.0,83,0.00,,,0.00,0,Wunderground v.1.15,2013-04-17 01:32:00,
2013-04-16 21:38:00,75.4,69.5,30.17,NE,45,5.0,6.0,82,0.00,,,0.00,0,Wunderground v.1.15,2013-04-17 01:38:00,
2013-04-16 21:44:00,75.3,69.4,30.17,NE,46,6.0,8.0,82,0.00,,,0.00,0,Wunderground v.1.15,2013-04-17 01:44:00,
2013-04-16 21:50:00,75.3,69.1,30.17,ENE,64,6.0,6.0,81,0.00,,,0.00,0,Wunderground v.1.15,2013-04-17 01:50:00,
2013-04-16 21:56:00,75.3,68.3,30.17,NE,46,7.0,9.0,79,0.00,,,0.00,0,Wunderground v.1.15,2013-04-17 01:56:00,
2013-04-16 22:02:00,75.3,68.3,30.17,NE,41,7.0,10.0,79,0.00,,,0.00,0,Wunderground v.1.15,2013-04-17 02:02:00,
2013-04-16 22:08:00,75.3,68.3,30.17,NE,49,6.0,10.0,79,0.00,,,0.00,0,Wunderground v.1.15,2013-04-17 02:08:00,
2013-04-16 22:14:00,75.4,68.8,30.17,East,92,5.0,6.0,80,0.00,,,0.00,0,Wunderground v.1.15,2013-04-17 02:14:00,
2013-04-16 22:20:00,75.3,68.7,30.17,ENE,75,6.0,6.0,80,0.00,,,0.00,0,Wunderground v.1.15,2013-04-17 02:20:00,
2013-04-16 22:26:00,75.3,68.7,30.17,NE,52,5.0,12.0,80,0.00,,,0.00,0,Wunderground v.1.15,2013-04-17 02:26:00,
2013-04-16 22:32:00,75.3,68.7,30.17,NE,45,6.0,6.0,80,0.00,,,0.00,0,Wunderground v.1.15,2013-04-17 02:32:00,
2013-04-16 22:38:00,75.2,69.0,30.17,NE,51,5.0,6.0,81,0.00,,,0.00,0,Wunderground v.1.15,2013-04-17 02:38:00,
2013-04-16 22:44:00,75.2,69.0,30.17,NE,56,5.0,5.0,81,0.00,,,0.00,0,Wunderground v.1.15,2013-04-17 02:44:00,
2013-04-16 22:50:00,75.2,69.0,30.16,ENE,75,6.0,6.0,81,0.00,,,0.00,0,Wunderground v.1.15,2013-04-17 02:50:00,
2013-04-16 22:56:00,75.1,68.9,30.17,ENE,63,5.0,7.0,81,0.00,,,0.00,0,Wunderground v.1.15,2013-04-17 02:56:00,
2013-04-16 23:02:00,75.1,68.9,30.16,ENE,73,4.0,6.0,81,0.00,,,0.00,0,Wunderground v.1.15,2013-04-17 03:02:00,
2013-04-16 23:08:00,75.1,69.2,30.16,NE,54,5.0,6.0,82,0.00,,,0.00,0,Wunderground v.1.15,2013-04-17 03:08:00,
2013-04-16 23:14:00,75.1,69.2,30.16,ENE,65,5.0,9.0,82,0.00,,,0.00,0,Wunderground v.1.15,2013-04-17 03:14:00,
2013-04-16 23:20:00,75.0,69.5,30.16,NE,46,5.0,5.0,83,0.00,,,0.00,0,Wunderground v.1.15,2013-04-17 03:20:00,
2013-04-16 23:26:00,75.0,69.8,30.16,East,95,5.0,6.0,84,0.00,,,0.00,0,Wunderground v.1.15,2013-04-17 03:26:00,
2013-04-16 23:32:00,74.9,69.7,30.16,ENE,63,4.0,4.0,84,0.00,,,0.00,0,Wunderground v.1.15,2013-04-17 03:32:00,
2013-04-16 23:38:00,74.8,69.3,30.16,ENE,72,4.0,5.0,83,0.00,,,0.00,0,Wunderground v.1.15,2013-04-17 03:38:00,
2013-04-16 23:44:00,74.9,69.4,30.16,NE,55,5.0,6.0,83,0.00,,,0.00,0,Wunderground v.1.15,2013-04-17 03:44:00,
2013-04-16 23:50:00,74.8,69.3,30.16,East,81,4.0,5.0,83,0.00,,,0.00,0,Wunderground v.1.15,2013-04-17 03:50:00,
2013-04-16 23:56:00,74.8,68.9,30.16,ENE,60,4.0,5.0,82,0.00,,,0.00,0,Wunderground v.1.15,2013-04-17 03:56:00,